www.pogodaiklimat.ru

Погода и климат >> Архив погоды >> Индия >> Ассам >> Гувахати


ПОГОДА в Гувахати

  • Прогноз погоды в Гувахати
  • Монитор погоды в Гувахати

АРХИВ ПОГОДЫ в Гувахати

Время (UTC), дата Ветер
(напр.,м/с)
 
Видим.   Явления Облачность Т
(С)
Тd
(С)
f
(%)
Тe
(С)
Тes
(С)
Комфортность P
(гПа)
Po
(гПа)
Тmin
(С)
Tmax
(С)
R
(мм)
R24
(мм)
S
(см)
21 16.01 штиль 0 1000 м дымка 3/3 540 м
[Sc]
+15.0 +13.2 89 +15 +15 1016.5 1017.0
00 17.01 штиль 0 1000 м местами туман поземный 3/3 540 м
[Sc]
+10.0 +9.6 97 +9 +9 1015.7 1016.0
03 17.01 штиль 0 1000 м дымка 3/3 600 м
[Sc]
+14.2 +12.0 87 +14 +18 1017.7 1018.0 +8.8
06 17.01 штиль 0 2000 м мгла 3/3 600 м
[Sc]
+22.8 +14.7 60 +26 +36 жарко 1015.7 1016.0
09 17.01 СВ 3 2000 м мгла 4/3 600 м
[Sc Ac trans]
+25.8 +12.3 43 +27 +29 жарко 1012.1 1012.0
12 17.01 штиль 0 2000 м мгла 3/3 600 м
[Sc]
+21.2 +14.8 67 +24 +24 комфорт 1012.5 1013.0 +26.4
15 17.01 штиль 0 2000 м дымка 1/1 600 м
[Sc]
+16.0 +13.5 85 +16 +16 1015.2 1015.0
18 17.01 штиль 0 2000 м дымка 1/1 600 м
[Sc]
+14.0 +12.2 89 +14 +14 1015.4 1015.0
21 17.01 штиль 0 1000 м дымка 3/3 540 м
[Sc]
+12.0 +10.9 93 +11 +11 1014.8 1015.0
00 18.01 штиль 0 1000 м дымка 3/3 540 м
[Sc]
+10.4 +9.6 95 +10 +10 1015.5 1016.0
03 18.01 штиль 0 1000 м дымка 3/3 540 м
[Sc]
+15.2 +13.0 87 +15 +19 1017.8 1018.0 +9.8
06 18.01 С 2 2000 м мгла 3/3 600 м
[Sc]
+23.4 +13.5 54 +27 +34 душно 1015.7 1016.0
09 18.01 СВ 3 2000 м мгла 3/3 600 м
[Sc]
+25.4 +13.6 48 +28 +30 жарко 1012.3 1012.0
12 18.01 штиль 0 2000 м мгла 3/3 600 м
[Sc]
+21.4 +15.7 70 +25 +25 комфорт 1012.8 1013.0 +26.3
15 18.01 штиль 0 2000 м дымка 5/3 600 м
[Sc Ac trans]
+18.0 +14.6 81 +18 +18 1015.2 1015.0
18 18.01 штиль 0 2000 м дымка 5/3 600 м
[Sc]
+15.6 +13.8 89 +15 +15 1015.6 1016.0
00 19.01 штиль 0 2000 м дымка 5/3 600 м
[Sc Ac trans]
+12.0 +11.2 95 +11 +11 1016.4 1016.0
03 19.01 штиль 0 1000 м дымка 3/3 600 м
[Sc]
+15.4 +12.1 81 +15 +20 1018.0 1018.0 +11.0
06 19.01 С 3 2000 м мгла 4/3 600 м
[Sc Ac trans]
+23.0 +13.4 55 +26 +32 жарко 1017.8 1018.0
09 19.01 С 3 2000 м мгла 1/1 600 м
[Sc]
+25.2 +11.9 43 +27 +30 жарко 1013.7 1014.0
12 19.01 штиль 0 2000 м мгла 6/3 540 м
[Sc Ac trans]
+20.4 +14.6 69 +23 +23 комфорт 1014.1 1014.0 +26.5
15 19.01 штиль 0 2000 м дымка 8/4 540 м
[Sc Ac trans]
+17.6 +14.5 82 +18 +18 1015.8 1016.0
18 19.01 штиль 0 2000 м дымка 8/4 540 м
[Sc Ac trans]
+15.4 +13.3 87 +15 +15 1017.0 1017.0
21 19.01 штиль 0 2000 м дымка 8/4 540 м
[Sc Ac trans]
+14.2 +13.1 93 +14 +14 1016.4 1016.0
00 20.01 штиль 0 1000 м дымка 5/3 540 м
[Sc Ac trans]
+11.2 +10.8 97 +10 +10 1016.2 1016.0
03 20.01 штиль 0 1000 м дымка 3/3 540 м
[Sc]
+15.4 +12.9 85 +15 +20 1019.1 1019.0 +10.2
06 20.01 штиль 0 2000 м мгла 3/3 600 м
[Sc]
+24.4 +14.7 55 +27 +37 жарко 1017.1 1017.0
09 20.01 С 4 2000 м мгла 3/3 600 м
[Sc]
+26.0 +13.0 45 +28 +30 жарко 1014.5 1015.0
12 20.01 штиль 0 2000 м мгла 3/3 600 м
[Sc]
+21.0 +15.3 70 +24 +24 комфорт 1014.6 1015.0 +26.9
15 20.01 штиль 0 2000 м дымка 3/3 600 м
[Sc]
+15.6 +12.3 81 +15 +15 1016.2 1016.0
18 20.01 штиль 0 2000 м дымка 3/3 600 м
[Sc]
+14.0 +13.3 96 +14 +14 1016.8 1017.0
21 20.01 штиль 0 2000 м дымка 3/3 600 м
[Sc]
+14.0 +13.3 96 +14 +14 1016.8 1017.0
00 21.01 штиль 0 2000 м дымка 3/3 600 м
[Sc]
+11.0 +10.6 97 +10 +10 1017.4 1017.0
03 21.01 штиль 0 2000 м дымка 3/3 600 м
[Sc]
+16.0 +12.8 81 +16 +20 1019.4 1019.0 +9.8
06 21.01 СВ 3 2000 м мгла 3/3 600 м
[Sc]
+24.0 +13.8 53 +26 +33 жарко 1017.6 1018.0
09 21.01 С 3 2000 м мгла 1/1 600 м
[Sc]
+26.0 +11.2 40 +27 +30 жарко 1013.9 1014.0
12 21.01 штиль 0 2000 м мгла 3/3 600 м
[Sc]
+21.6 +16.0 70 +25 +25 комфорт 1014.1 1014.0 +27.3
15 21.01 штиль 0 2000 м дымка 4/3 600 м
[Sc Ac trans]
+15.6 +12.7 83 +15 +15 1016.0 1016.0
18 21.01 штиль 0 2000 м дымка 4/3 540 м
[Sc Ac trans]
+13.2 +11.3 88 +13 +13 1016.7 1017.0
21 21.01 штиль 0 2000 м дымка 4/3 540 м
[Sc Ac trans]
+13.2 +11.3 88 +13 +13 1016.0 1016.0
00 22.01 штиль 0 1000 м дымка 3/3 540 м
[Sc]
+11.2 +10.0 92 +10 +10 1017.2 1017.0
03 22.01 штиль 0 2000 м дымка 3/3 540 м
[Sc]
+16.0 +12.8 81 +16 +21 1018.3 1018.0 +10.2
06 22.01 СВ 3 2000 м мгла 5/3 600 м
[Sc Ac trans]
+23.8 +14.4 56 +26 +32 жарко 1017.7 1018.0
09 22.01 штиль 0 2000 м мгла 5/3 600 м
[Sc Ac trans]
+25.8 +11.4 41 +27 +30 жарко 1014.8 1015.0
12 22.01 штиль 0 2000 м мгла 4/3 600 м
[Sc Ac trans]
+24.0 +15.4 59 +27 +27 жарко 1015.0 1015.0 +27.6
15 22.01 штиль 0 2000 м дымка 1/1 600 м
[Sc]
+16.0 +14.3 90 +16 +16 1017.0 1017.0
18 22.01 штиль 0 2000 м дымка 1/1 600 м
[Sc]
+13.6 +12.5 93 +13 +13 1017.3 1017.0
21 22.01 штиль 0 2000 м дымка 1/1 600 м
[Sc]
+12.8 +11.7 93 +12 +12 1017.1 1017.0
00 23.01 штиль 0 1000 м дымка 1/1 600 м
[Sc]
+11.6 +10.4 92 +11 +11 1017.6 1018.0
03 23.01 штиль 0 1000 м дымка 3/3 540 м
[Sc]
+15.8 +13.3 85 +16 +20 1018.2 1018.0 +10.1
06 23.01 СВ 3 2000 м мгла 3/3 600 м
[Sc]
+24.2 +14.0 53 +27 +34 жарко 1017.6 1018.0
09 23.01 С 4 2000 м мгла 3/3 600 м
[Sc]
+25.6 +13.4 47 +28 +30 жарко 1014.8 1015.0
12 23.01 штиль 0 2000 м мгла 3/3 600 м
[Sc]
+22.0 +15.3 66 +26 +26 душно 1014.9 1015.0 +26.5
15 23.01 штиль 0 2000 м дымка 3/3 600 м
[Sc]
+16.6 +14.5 87 +16 +16 1016.8 1017.0
18 23.01 штиль 0 2000 м дымка 3/3 600 м
[Sc]
+15.4 +13.6 89 +15 +15 1017.6 1018.0

 

Местоположение метеостанции Гувахати (Ассам, Индия): широта 26.10 долгота 91.58 высота над уровнем моря 54 м.

В архиве по умолчанию представлена погода в Гувахати за последнюю неделю. Архивные данные за месяц целиком и за предыдущие месяцы, начиная с января 2011 года, Вы можете получить, выбрав интересующий диапазон дат из раскрывающегося списка и нажав кнопку "Ввод!".


*Определитесь, кто Вы:
робот инопланетянин человек

Внимание! Время в таблицах - всемирное. Для получения местного времени необходимо прибавить поправку, которая равна 5.5 ч.

Смотрите также архив погоды в соседних городах и на ближайших метеорологических станциях:

Погода в Рейнджии (Ассам, Индия) (37 км)
Погода в Шиллонг аэропорту (Мегхалая, Индия) (59 км)
Погода в Шиллонге (Мегхалая, Индия) (66 км)
Погода в Тангле (Ассам, Индия) (70 км)
Погода в Чапармуке (Ассам, Индия) (95 км)
Погода в Гоалпара (Ассам, Индия) (95 км)
Погода в Черапунджи (Мегхалая, Индия) (96 км)
Погода в Мазбате (Ассам, Индия) (105 км)
Погода в Тезпуре (Ассам, Индия) (133 км)
Погода в Силхете (Бангладеш) (137 км)

Пояснения к столбцам:

Ветер - указаны скорость ветра в м/с - средняя за 10 мин, порывы в срок и между сроками (в фигурных скобках) и направление, откуда дует ветер: С - северный, СВ - северо-восточный, В - восточный, ЮВ - юго-восточный, Ю - южный, ЮЗ - юго-западный, З - западный, СЗ - северо-западный.
Видимость - горизонтальная дальность видимости в метрах или километрах. При видимости от 1 до 10 км при отсутствии осадков обычно наблюдается дымка, при ухудшении видимости до 1 км и менее - туман. В сухую погоду видимость может ухудшаться дымом, пылью или мглою.
Явления - указаны атмосферные явления, наблюдавшиеся в срок или в последний час перед сроком; фигурными скобками обозначены явления, наблюдавшиеся между сроками (за 1-3 часа до срока); квадратными скобками обозначены град или гололедные отложения с указанием их диаметра в мм.
Облачность - указаны через наклонную черту общая и нижняя облачность в баллах и высота нижней границы облаков в метрах; квадратными скобками обозначены формы облаков: Ci - перистые, Cs - перисто-слоистые, Cc - перисто-кучевые, Ac - высококучевые, As - высокослоистые, Sc - слоисто-кучевые, Ns - слоисто-дождевые, Cu - кучевые, Cb - кучево-дождевые. Подробнее классификацию облаков см. в Атласе облаков (PDF).
T - Температура воздуха - температура, измеренная на высоте 2 м над землей.
Td - Температура точки росы - температура, при понижении до которой содержащийся в воздухе водяной пар достигнет насыщения.
f - Относительная влажность воздуха - влажноcть воздуха, измеренная на высоте 2 м над землей.
Te - Эффективная температура - температура, которую ощущает одетый по сезону человек в тени. Характеристика душности погоды. При расчете учитывается влияние влажности воздуха и скорости ветра на теплоощущения человека.
Tes - Эффективная температура на солнце - температура, которую ощущает человек, с поправкой на солнечный нагрев. Характеристика знойности погоды. Зависит от высоты солнца над горизонтом, облачности и скорости ветра. Ночью, в пасмурную погоду, а также при ветре 12 м/с и более поправка равна нулю.
P - Атмосферное давление - приведенное к уровню моря атмосферное давление.
Po - Атмосферное давление - измеренное на уровне метеостанции атмосферное давление.
Tmin - Минимальная температура - минимум температуры воздуха на высоте 2 м над землей.
Tmax - Максимальная температура - максимум температуры воздуха на высоте 2 м над землей.
R - Количество осадков - Количество выпавших осадков за период времени, мм. При наведении курсора мыши на число - период времени, за который выпало указанное количество осадков.
R24 - Количество осадков - Количество выпавших осадков за 24 часа, мм.
S - Снежный покров - Высота снежного покрова, см. При наведении курсора мыши на число - состояние снежного покрова и степень покрытия местности в баллах.